FW6260 Weather Reports


Display with metric or nautical units.
time (UTC)temp
F
wind
direction
speed
MPH
gust
MPH
rain 1hr
in
rain 24hr
in
rain mn
in
humidity
%
barometer
mb
20260510073040 62 103 2.0 7.0 0.00 0.00 0.00 66
20260510070110 60 102 3.0 8.0 0.00 0.00 0.00 70
20260510063040 58 111 2.0 7.0 0.00 0.00 0.00 74
20260510060110 56 113 1.0 4.0 0.00 0.00 0.00 78
20260510053042 53 128 1.0 3.0 0.00 0.00 0.00 82
20260510050152 48 127 0.0 2.0 0.00 0.00 0.00 89
20260510043042 45 127 0.0 2.0 0.00 0.00 0.00 93
20260510040113 45 147 0.0 2.0 0.00 0.00 0.00 93
20260510033044 45 162 1.0 3.0 0.00 0.00 0.00 93
20260510030114 46 157 1.0 3.0 0.00 0.00 0.00 92
20260510023045 46 163 1.0 3.0 0.00 0.00 0.00 92
20260510020155 46 153 1.0 3.0 0.00 0.00 0.00 93
20260510013046 47 126 0.0 2.0 0.00 0.00 0.00 91
20260510010116 47 132 0.0 3.0 0.00 0.00 0.00 91
20260510003046 48 151 1.0 4.0 0.00 0.00 0.00 90
20260510000219 50 139 0.0 2.0 0.00 0.00 0.00 87
20260509233107 51 135 0.0 2.0 0.00 0.00 0.00 85
20260509230017 51 139 0.0 2.0 0.00 0.00 0.00 84
20260509223048 51 123 0.0 2.0 0.00 0.00 0.00 85
20260509220037 51 122 0.0 3.0 0.00 0.00 0.00 85
20260509213049 51 126 0.0 1.0 0.00 0.00 0.00 85
20260509210038 52 0.0 0.0 0.00 0.00 0.00 85
20260509203110 53 0.0 0.0 0.00 0.00 0.00 82
20260509200019 55 0.0 0.0 0.00 0.00 0.00 78
20260509193131 57 0.0 0.0 0.00 0.00 0.00 75
20260509190040 59 0.0 0.0 0.00 0.00 0.00 71
20260509183051 60 0.0 0.0 0.00 0.00 0.00 69
20260509180041 65 114 0.0 1.0 0.00 0.00 0.00 59
20260509173051 66 111 1.0 4.0 0.00 0.00 0.00 55
20260509170021 68 106 2.0 8.0 0.00 0.00 0.00 51
20260509163051 69 98 1.0 6.0 0.00 0.00 0.00 49
20260509160021 68 108 1.0 6.0 0.00 0.00 0.00 51
20260509153132 69 103 2.0 4.0 0.00 0.00 0.00 49
20260509150022 68 104 1.0 4.0 0.00 0.00 0.00 50
20260509143233 70 114 1.0 6.0 0.00 0.00 0.00 48
20260509140023 69 114 1.0 6.0 0.00 0.00 0.00 50
20260509133054 70 127 1.0 7.0 0.00 0.00 0.00 49
20260509130024 69 109 1.0 3.0 0.00 0.00 0.00 51
20260509123055 68 99 2.0 6.0 0.00 0.00 0.00 53
20260509120025 68 96 2.0 7.0 0.00 0.00 0.00 52
20260509113116 69 105 2.0 6.0 0.00 0.00 0.00 53
20260509110046 68 128 2.0 4.0 0.00 0.00 0.00 53
20260509103057 67 131 2.0 6.0 0.00 0.00 0.00 55
20260509100027 65 102 2.0 7.0 0.00 0.00 0.00 58
20260509093058 63 126 1.0 4.0 0.00 0.00 0.00 67
20260509090028 61 120 1.0 3.0 0.00 0.00 0.00 71
20260509083059 59 135 1.0 3.0 0.00 0.00 0.00 74
20260509080109 56 107 0.0 2.0 0.00 0.00 0.00 79